Time,TemperatureF,DewpointF,PressureIn,WindDirection,WindDirectionDegrees,WindSpeedMPH,WindSpeedGustMPH,Humidity,HourlyPrecipIn,Conditions,Clouds,dailyrainin,SoftwareType,DateUTC
2013-07-24 00:00:00,84.0,77.0,29.94,WSW,250,8.0,12.0,80,-99.99,,,-99.99,,2013-07-24 05:00:00,
2013-07-24 00:22:00,84.0,77.0,29.94,WSW,250,8.0,12.0,80,-99.99,,,-99.99,,2013-07-24 05:22:00,
2013-07-24 00:32:00,84.0,77.0,29.94,WSW,250,8.0,12.0,80,-99.99,,,-99.99,,2013-07-24 05:32:00,
2013-07-24 00:43:00,84.0,77.0,29.94,WSW,250,8.0,12.0,80,-99.99,,,-99.99,,2013-07-24 05:43:00,
2013-07-24 00:52:00,84.0,77.0,29.94,WSW,250,8.0,12.0,80,-99.99,,,-99.99,,2013-07-24 05:52:00,
2013-07-24 01:00:00,83.0,77.0,29.93,WSW,250,10.0,15.0,80,-99.99,,,-99.99,,2013-07-24 06:00:00,
2013-07-24 01:34:00,83.0,77.0,29.93,WSW,250,10.0,15.0,80,-99.99,,,-99.99,,2013-07-24 06:34:00,
2013-07-24 01:42:00,83.0,77.0,29.93,WSW,250,10.0,15.0,80,-99.99,,,-99.99,,2013-07-24 06:42:00,
2013-07-24 01:53:00,83.0,77.0,29.93,WSW,250,10.0,15.0,80,-99.99,,,-99.99,,2013-07-24 06:53:00,
2013-07-24 02:00:00,83.0,77.0,29.92,West,260,13.0,18.0,83,-99.99,,,-99.99,,2013-07-24 07:00:00,
2013-07-24 02:22:00,83.0,77.0,29.92,West,260,13.0,18.0,83,-99.99,,,-99.99,,2013-07-24 07:22:00,
2013-07-24 02:32:00,83.0,77.0,29.92,West,260,13.0,18.0,83,-99.99,,,-99.99,,2013-07-24 07:32:00,
2013-07-24 02:43:00,83.0,77.0,29.92,West,260,13.0,18.0,83,-99.99,,,-99.99,,2013-07-24 07:43:00,
2013-07-24 02:52:00,83.0,77.0,29.92,West,260,13.0,18.0,83,-99.99,,,-99.99,,2013-07-24 07:52:00,
2013-07-24 03:00:00,82.0,76.0,29.89,West,260,13.0,17.0,82,-99.99,,,-99.99,,2013-07-24 08:00:00,
2013-07-24 03:32:00,82.0,76.0,29.89,West,260,13.0,17.0,82,-99.99,,,-99.99,,2013-07-24 08:32:00,
2013-07-24 03:42:00,82.0,76.0,29.89,West,260,13.0,17.0,82,-99.99,,,-99.99,,2013-07-24 08:42:00,
2013-07-24 03:52:00,82.0,76.0,29.89,West,260,13.0,17.0,82,-99.99,,,-99.99,,2013-07-24 08:52:00,
2013-07-24 04:00:00,82.0,77.0,29.91,West,260,13.0,16.0,84,-99.99,,,-99.99,,2013-07-24 09:00:00,
2013-07-24 04:21:00,82.0,77.0,29.91,West,260,13.0,16.0,84,-99.99,,,-99.99,,2013-07-24 09:21:00,
2013-07-24 04:32:00,82.0,77.0,29.91,West,260,13.0,16.0,84,-99.99,,,-99.99,,2013-07-24 09:32:00,
2013-07-24 04:43:00,82.0,77.0,29.91,West,260,13.0,16.0,84,-99.99,,,-99.99,,2013-07-24 09:43:00,
2013-07-24 04:53:00,82.0,77.0,29.91,West,260,13.0,16.0,84,-99.99,,,-99.99,,2013-07-24 09:53:00,
2013-07-24 05:00:00,82.0,76.0,29.93,West,260,14.0,20.0,83,-99.99,,,-99.99,,2013-07-24 10:00:00,
2013-07-24 05:32:00,82.0,76.0,29.93,West,260,14.0,20.0,83,-99.99,,,-99.99,,2013-07-24 10:32:00,
2013-07-24 05:43:00,82.0,76.0,29.93,West,260,14.0,20.0,83,-99.99,,,-99.99,,2013-07-24 10:43:00,
2013-07-24 05:53:00,82.0,76.0,29.93,West,260,14.0,20.0,83,-99.99,,,-99.99,,2013-07-24 10:53:00,
2013-07-24 06:00:00,82.0,77.0,29.94,West,280,15.0,18.0,85,-99.99,,,-99.99,,2013-07-24 11:00:00,
2013-07-24 06:22:00,82.0,77.0,29.94,West,280,15.0,18.0,85,-99.99,,,-99.99,,2013-07-24 11:22:00,
2013-07-24 06:32:00,82.0,77.0,29.94,West,280,15.0,18.0,85,-99.99,,,-99.99,,2013-07-24 11:32:00,
2013-07-24 06:43:00,82.0,77.0,29.94,West,280,15.0,18.0,85,-99.99,,,-99.99,,2013-07-24 11:43:00,
2013-07-24 06:52:00,82.0,77.0,29.94,West,280,15.0,18.0,85,-99.99,,,-99.99,,2013-07-24 11:52:00,
2013-07-24 08:00:00,82.0,76.0,29.94,West,260,10.0,15.0,82,-99.99,,,-99.99,,2013-07-24 13:00:00,
2013-07-24 08:32:00,82.0,76.0,29.94,West,260,10.0,15.0,82,-99.99,,,-99.99,,2013-07-24 13:32:00,
2013-07-24 08:43:00,82.0,76.0,29.94,West,260,10.0,15.0,82,-99.99,,,-99.99,,2013-07-24 13:43:00,
2013-07-24 08:53:00,82.0,76.0,29.94,West,260,10.0,15.0,82,-99.99,,,-99.99,,2013-07-24 13:53:00,
2013-07-24 09:00:00,83.0,76.0,29.95,West,280,18.0,22.0,78,-99.99,,,-99.99,,2013-07-24 14:00:00,
2013-07-24 09:32:00,83.0,76.0,29.95,West,280,18.0,22.0,78,-99.99,,,-99.99,,2013-07-24 14:32:00,
2013-07-24 09:43:00,83.0,76.0,29.95,West,280,18.0,22.0,78,-99.99,,,-99.99,,2013-07-24 14:43:00,
2013-07-24 09:55:00,83.0,76.0,29.95,West,280,18.0,22.0,78,-99.99,,,-99.99,,2013-07-24 14:55:00,
2013-07-24 10:00:00,83.0,76.0,29.95,West,260,16.0,23.0,80,-99.99,,,-99.99,,2013-07-24 15:00:00,
2013-07-24 10:32:00,83.0,76.0,29.95,West,260,16.0,23.0,80,-99.99,,,-99.99,,2013-07-24 15:32:00,
2013-07-24 10:43:00,83.0,76.0,29.95,West,260,16.0,23.0,80,-99.99,,,-99.99,,2013-07-24 15:43:00,
2013-07-24 10:52:00,83.0,76.0,29.95,West,260,16.0,23.0,80,-99.99,,,-99.99,,2013-07-24 15:52:00,
2013-07-24 12:00:00,83.0,76.0,29.96,West,260,10.0,15.0,80,-99.99,,,-99.99,,2013-07-24 17:00:00,
2013-07-24 12:33:00,83.0,76.0,29.96,West,260,10.0,15.0,80,-99.99,,,-99.99,,2013-07-24 17:33:00,
2013-07-24 12:42:00,83.0,76.0,29.96,West,260,10.0,15.0,80,-99.99,,,-99.99,,2013-07-24 17:42:00,
2013-07-24 12:53:00,83.0,76.0,29.96,West,260,10.0,15.0,80,-99.99,,,-99.99,,2013-07-24 17:53:00,
2013-07-24 13:00:00,85.0,76.0,29.95,West,260,10.0,16.0,74,-99.99,,,-99.99,,2013-07-24 18:00:00,
2013-07-24 13:32:00,85.0,76.0,29.95,West,260,10.0,16.0,74,-99.99,,,-99.99,,2013-07-24 18:32:00,
2013-07-24 13:43:00,85.0,76.0,29.95,West,260,10.0,16.0,74,-99.99,,,-99.99,,2013-07-24 18:43:00,
2013-07-24 13:52:00,85.0,76.0,29.95,West,260,10.0,16.0,74,-99.99,,,-99.99,,2013-07-24 18:52:00,
2013-07-24 14:00:00,85.0,75.0,29.93,West,260,12.0,16.0,72,-99.99,,,-99.99,,2013-07-24 19:00:00,
2013-07-24 14:32:00,85.0,75.0,29.93,West,260,12.0,16.0,72,-99.99,,,-99.99,,2013-07-24 19:32:00,
2013-07-24 14:43:00,85.0,75.0,29.93,West,260,12.0,16.0,72,-99.99,,,-99.99,,2013-07-24 19:43:00,
2013-07-24 14:53:00,85.0,75.0,29.93,West,260,12.0,16.0,72,-99.99,,,-99.99,,2013-07-24 19:53:00,
2013-07-24 15:00:00,85.0,76.0,29.90,WSW,240,9.0,13.0,74,-99.99,,,-99.99,,2013-07-24 20:00:00,
2013-07-24 15:32:00,85.0,76.0,29.90,WSW,240,9.0,13.0,74,-99.99,,,-99.99,,2013-07-24 20:32:00,
2013-07-24 15:42:00,85.0,76.0,29.90,WSW,240,9.0,13.0,74,-99.99,,,-99.99,,2013-07-24 20:42:00,
2013-07-24 15:52:00,85.0,76.0,29.90,WSW,240,9.0,13.0,74,-99.99,,,-99.99,,2013-07-24 20:52:00,
2013-07-24 16:00:00,85.0,76.0,29.88,WSW,240,13.0,21.0,75,-99.99,,,-99.99,,2013-07-24 21:00:00,
2013-07-24 16:21:00,85.0,76.0,29.88,WSW,240,13.0,21.0,75,-99.99,,,-99.99,,2013-07-24 21:21:00,
2013-07-24 16:32:00,85.0,76.0,29.88,WSW,240,13.0,21.0,75,-99.99,,,-99.99,,2013-07-24 21:32:00,
2013-07-24 16:43:00,85.0,76.0,29.88,WSW,240,13.0,21.0,75,-99.99,,,-99.99,,2013-07-24 21:43:00,
2013-07-24 16:52:00,85.0,76.0,29.88,WSW,240,13.0,21.0,75,-99.99,,,-99.99,,2013-07-24 21:52:00,
2013-07-24 17:00:00,85.0,76.0,29.88,SW,230,15.0,20.0,74,-99.99,,,-99.99,,2013-07-24 22:00:00,
2013-07-24 17:32:00,85.0,76.0,29.88,SW,230,15.0,20.0,74,-99.99,,,-99.99,,2013-07-24 22:32:00,
2013-07-24 17:42:00,85.0,76.0,29.88,SW,230,15.0,20.0,74,-99.99,,,-99.99,,2013-07-24 22:42:00,
2013-07-24 17:53:00,85.0,76.0,29.88,SW,230,15.0,20.0,74,-99.99,,,-99.99,,2013-07-24 22:53:00,
2013-07-24 18:00:00,86.0,76.0,29.88,SW,230,10.0,14.0,72,-99.99,,,-99.99,,2013-07-24 23:00:00,
2013-07-24 18:32:00,86.0,76.0,29.88,SW,230,10.0,14.0,72,-99.99,,,-99.99,,2013-07-24 23:32:00,
2013-07-24 18:43:00,86.0,76.0,29.88,SW,230,10.0,14.0,72,-99.99,,,-99.99,,2013-07-24 23:43:00,
2013-07-24 18:52:00,86.0,76.0,29.88,SW,230,10.0,14.0,72,-99.99,,,-99.99,,2013-07-24 23:52:00,
2013-07-24 19:00:00,85.0,78.0,29.89,SW,230,7.0,9.0,79,-99.99,,,-99.99,,2013-07-25 00:00:00,
2013-07-24 19:32:00,85.0,78.0,29.89,SW,230,7.0,9.0,79,-99.99,,,-99.99,,2013-07-25 00:32:00,
2013-07-24 19:43:00,85.0,78.0,29.89,SW,230,7.0,9.0,79,-99.99,,,-99.99,,2013-07-25 00:43:00,
2013-07-24 19:52:00,85.0,78.0,29.89,SW,230,7.0,9.0,79,-99.99,,,-99.99,,2013-07-25 00:52:00,
2013-07-24 21:00:00,84.0,78.0,29.90,SW,230,7.0,9.0,82,-99.99,,,-99.99,,2013-07-25 02:00:00,
2013-07-24 21:33:00,84.0,78.0,29.90,SW,230,7.0,9.0,82,-99.99,,,-99.99,,2013-07-25 02:33:00,
2013-07-24 21:43:00,84.0,78.0,29.90,SW,230,7.0,9.0,82,-99.99,,,-99.99,,2013-07-25 02:43:00,
2013-07-24 21:52:00,84.0,78.0,29.90,SW,230,7.0,9.0,82,-99.99,,,-99.99,,2013-07-25 02:52:00,
2013-07-24 22:00:00,84.0,79.0,29.91,WSW,240,7.0,10.0,83,-99.99,,,-99.99,,2013-07-25 03:00:00,
2013-07-24 22:43:00,84.0,79.0,29.91,WSW,240,7.0,10.0,83,-99.99,,,-99.99,,2013-07-25 03:43:00,
2013-07-24 23:00:00,81.0,77.0,29.91,NNE,20,12.0,14.0,85,-99.99,,,-99.99,,2013-07-25 04:00:00,
2013-07-24 23:32:00,81.0,77.0,29.91,NNE,20,12.0,14.0,85,-99.99,,,-99.99,,2013-07-25 04:32:00,
2013-07-24 23:43:00,81.0,77.0,29.91,NNE,20,12.0,14.0,85,-99.99,,,-99.99,,2013-07-25 04:43:00,
2013-07-24 23:53:00,81.0,77.0,29.91,NNE,20,12.0,14.0,85,-99.99,,,-99.99,,2013-07-25 04:53:00,